Flag for United Kingdom Weather past 2 weeks in Plymouth, England, United Kingdom

Now
61 °F

Sunny.


Feels Like: 61 °F
Forecast: 51 / 64 °F
Wind: 10 mph from Northwest

Location: Exeter Airport

Current Time: May 22, 2015 at 8:36:37 PM

Latest Report: May 22, 2015 at 8:20 PM


Visibility: 10 mi

Pressure: 30.27 "Hg

Humidity: 77%

Dew point: 54 °F

Location of PlymouthLocation

Historic Weather in Plymouth — Graph

°F

Plymouth temperature yesterday

Maximum temperature yesterday: 64 °F (at 1:20 PM)
Minimum temperature yesterday: 46 °F (at 12:20 AM)
Average temperature yesterday: 56 °F

Past Weeks' High & Low Weather Summary

 TemperatureHumidityPressure
High68 °F (May 11, 1:20 PM)100% (May 8, 5:20 PM)30.42 "Hg (May 8, 5:20 PM)
Low36 °F (May 13, 5:20 AM)43% (May 11, 2:50 PM)29.65 "Hg (May 18, 10:20 AM)
Average54 °F77%30.08 "Hg
* Reported May 7 7:20 PM — May 22 7:20 PM, Plymouth, Weather by CustomWeather, © 2015

Note: Actual official high and low records may vary slightly from our data, if they occured in-between our weather recording intervals... More about our weather records

Advertising

Plymouth weather history for previous 24 hours

 ConditionsComfort  
Time TempWeatherWind HumidityBarometerVisibility
7:20 PM
Fri, May 22
64 °FSunny.10 mph68%30.24 "Hg10 mi
6:50 PM64 °FPassing clouds.12 mph68%30.24 "HgN/A
6:20 PM66 °FPassing clouds.13 mph64%30.24 "HgN/A
5:50 PM66 °FPassing clouds.13 mph68%30.24 "HgN/A
5:20 PM68 °FPassing clouds.14 mph60%30.24 "HgN/A
4:50 PM68 °FPassing clouds.13 mph64%30.27 "HgN/A
4:20 PM68 °FPassing clouds.12 mph64%30.27 "HgN/A
3:50 PM68 °FScattered clouds.13 mph64%30.27 "HgN/A
3:20 PM68 °FScattered clouds.13 mph64%30.27 "HgN/A
2:50 PM64 °FScattered clouds.13 mph73%30.27 "HgN/A
2:20 PM64 °FScattered clouds.13 mph73%30.27 "HgN/A
1:50 PM64 °FScattered clouds.12 mph73%30.30 "HgN/A
1:20 PM63 °FScattered clouds.9 mph77%30.30 "HgN/A
12:50 PM63 °FScattered clouds.10 mph77%30.30 "HgN/A
12:20 PM63 °FPartly sunny.8 mph77%30.30 "HgN/A
11:50 AM61 °FPartly sunny.9 mph83%30.30 "HgN/A
11:20 AM61 °FPartly sunny.12 mph83%30.30 "HgN/A
10:50 AM61 °FPartly sunny.9 mph83%30.30 "HgN/A
10:20 AM59 °FPartly sunny.10 mph82%30.33 "HgN/A
9:50 AM57 °FPartly sunny.8 mph88%30.33 "HgN/A
9:20 AM57 °FPartly sunny.7 mph88%30.33 "HgN/A
8:50 AM57 °FPartly sunny.5 mph82%30.33 "HgN/A
8:20 AM55 °FPartly sunny.3 mph88%30.33 "HgN/A
7:50 AM54 °FPartly sunny.2 mph88%30.33 "HgN/A
7:20 AM52 °FPartly sunny.2 mph94%30.33 "HgN/A
6:50 AM52 °FPartly sunny.2 mph94%30.33 "HgN/A
6:20 AM50 °FPartly sunny.2 mph94%30.33 "HgN/A
5:50 AM50 °FPassing clouds.3 mph94%30.33 "HgN/A
5:20 AM50 °FPassing clouds.5 mph94%30.33 "HgN/A
1:20 AM48 °FPassing clouds.3 mph87%30.36 "HgN/A
12:50 AM48 °FPassing clouds.1 mph87%30.39 "HgN/A
12:20 AM48 °FPassing clouds.2 mph87%30.39 "HgN/A
11:50 PM
Thu, May 21
48 °FPassing clouds.5 mph82%30.39 "HgN/A
11:20 PM48 °FPassing clouds.5 mph82%30.39 "HgN/A
10:20 PM50 °FPassing clouds.7 mph76%30.39 "HgN/A
9:50 PM52 °FScattered clouds.10 mph72%30.39 "HgN/A
9:20 PM54 °FScattered clouds.7 mph72%30.39 "HgN/A
8:50 PM54 °FScattered clouds.10 mph72%30.36 "HgN/A
8:20 PM54 °FScattered clouds.12 mph72%30.36 "HgN/A
Weather by CustomWeather, © 2015

See weather overviewHow to use our weather pages